Time,TemperatureF,DewpointF,PressureIn,WindDirection,WindDirectionDegrees,WindSpeedMPH,WindSpeedGustMPH,Humidity,HourlyPrecipIn,Conditions,Clouds,dailyrainin,SoftwareType,DateUTC
2013-02-20 00:00:00,26.7,17.9,30.13,SE,138,0.0,3.0,69,0.00,,,0.21,Wunderground v.1.15,2013-02-20 05:00:00,
2013-02-20 00:05:00,26.7,17.9,30.13,NE,49,1.0,3.0,69,0.00,,,0.00,Wunderground v.1.15,2013-02-20 05:05:00,
2013-02-20 00:14:00,26.5,18.0,30.14,SE,139,1.0,3.0,70,0.00,,,0.00,Wunderground v.1.15,2013-02-20 05:14:00,
2013-02-20 00:24:00,26.5,17.7,30.14,SSE,153,2.0,3.0,69,0.00,,,0.00,Wunderground v.1.15,2013-02-20 05:24:00,
2013-02-20 00:29:00,26.4,17.3,30.14,SE,146,2.0,3.0,68,0.00,,,0.00,Wunderground v.1.15,2013-02-20 05:29:00,
2013-02-20 00:35:00,26.2,17.1,30.14,South,181,2.0,3.0,68,0.00,,,0.00,Wunderground v.1.15,2013-02-20 05:35:00,
2013-02-20 00:44:00,26.1,16.6,30.14,SSE,158,2.0,3.0,67,0.00,,,0.00,Wunderground v.1.15,2013-02-20 05:44:00,
2013-02-20 00:54:00,26.0,15.8,30.14,NNE,19,2.0,3.0,65,0.00,,,0.00,Wunderground v.1.15,2013-02-20 05:54:00,
2013-02-20 00:59:00,25.9,15.7,30.14,SE,131,2.0,2.0,65,0.00,,,0.00,Wunderground v.1.15,2013-02-20 05:59:00,
2013-02-20 01:04:00,25.8,15.6,30.14,ESE,120,2.0,3.0,65,0.00,,,0.00,Wunderground v.1.15,2013-02-20 06:04:00,
2013-02-20 01:15:00,25.8,15.6,30.14,SE,134,2.0,5.0,65,0.00,,,0.00,Wunderground v.1.15,2013-02-20 06:15:00,
2013-02-20 01:24:00,25.7,15.6,30.15,ESE,120,1.0,3.0,65,0.00,,,0.00,Wunderground v.1.15,2013-02-20 06:24:00,
2013-02-20 01:34:00,25.7,15.2,30.15,SE,139,1.0,2.0,64,0.00,,,0.00,Wunderground v.1.15,2013-02-20 06:34:00,
2013-02-20 01:40:00,25.7,15.6,30.15,ENE,72,1.0,4.0,65,0.00,,,0.00,Wunderground v.1.15,2013-02-20 06:40:00,
2013-02-20 01:49:00,25.7,15.6,30.15,SSW,210,2.0,2.0,65,0.00,,,0.00,Wunderground v.1.15,2013-02-20 06:49:00,
2013-02-20 01:59:00,25.6,15.5,30.15,SE,129,1.0,3.0,65,0.00,,,0.00,Wunderground v.1.15,2013-02-20 06:59:00,
2013-02-20 02:10:00,25.6,15.8,30.15,SSE,149,1.0,3.0,66,0.00,,,0.00,Wunderground v.1.15,2013-02-20 07:10:00,
2013-02-20 02:19:00,25.5,15.7,30.15,ESE,121,1.0,1.0,66,0.00,,,0.00,Wunderground v.1.15,2013-02-20 07:19:00,
2013-02-20 02:29:00,25.5,16.1,30.15,East,85,1.0,3.0,67,0.00,,,0.00,Wunderground v.1.15,2013-02-20 07:29:00,
2013-02-20 02:34:00,25.5,16.1,30.16,SE,138,1.0,3.0,67,0.00,,,0.00,Wunderground v.1.15,2013-02-20 07:34:00,
2013-02-20 02:45:00,25.4,16.3,30.15,East,97,1.0,3.0,68,0.00,,,0.00,Wunderground v.1.15,2013-02-20 07:45:00,
2013-02-20 02:54:00,25.4,17.3,30.15,SSE,150,1.0,3.0,71,0.00,,,0.00,Wunderground v.1.15,2013-02-20 07:54:00,
2013-02-20 03:10:00,25.1,15.3,30.16,ESE,122,2.0,2.0,66,0.00,,,0.00,Wunderground v.1.15,2013-02-20 08:10:00,
2013-02-20 03:19:00,24.8,14.3,30.16,SE,138,1.0,3.0,64,0.00,,,0.00,Wunderground v.1.15,2013-02-20 08:19:00,
2013-02-20 03:25:00,24.7,14.2,30.16,SE,141,2.0,4.0,64,0.00,,,0.00,Wunderground v.1.15,2013-02-20 08:25:00,
2013-02-20 03:34:00,24.3,13.5,30.17,SSW,200,3.0,5.0,63,0.00,,,0.00,Wunderground v.1.15,2013-02-20 08:34:00,
2013-02-20 03:40:00,24.3,13.9,30.17,SSW,198,3.0,3.0,64,0.00,,,0.00,Wunderground v.1.15,2013-02-20 08:40:00,
2013-02-20 03:49:00,24.1,14.0,30.18,SSW,201,2.0,2.0,65,0.00,,,0.00,Wunderground v.1.15,2013-02-20 08:49:00,
2013-02-20 03:55:00,24.0,13.9,30.18,South,184,1.0,4.0,65,0.00,,,0.00,Wunderground v.1.15,2013-02-20 08:55:00,
2013-02-20 04:04:00,23.9,13.8,30.18,SSE,164,2.0,3.0,65,0.00,,,0.00,Wunderground v.1.15,2013-02-20 09:04:00,
2013-02-20 04:14:00,23.8,14.1,30.18,SW,224,1.0,3.0,66,0.00,,,0.00,Wunderground v.1.15,2013-02-20 09:14:00,
2013-02-20 04:19:00,23.7,14.0,30.18,SE,132,1.0,1.0,66,0.00,,,0.00,Wunderground v.1.15,2013-02-20 09:19:00,
2013-02-20 04:29:00,23.6,13.9,30.18,East,101,0.0,3.0,66,0.00,,,0.00,Wunderground v.1.15,2013-02-20 09:29:00,
2013-02-20 04:40:00,23.5,13.8,30.18,ESE,108,2.0,2.0,66,0.00,,,0.00,Wunderground v.1.15,2013-02-20 09:40:00,
2013-02-20 04:49:00,23.4,13.7,30.19,ESE,111,1.0,3.0,66,0.00,,,0.00,Wunderground v.1.15,2013-02-20 09:49:00,
2013-02-20 04:54:00,23.3,13.6,30.19,SW,214,2.0,3.0,66,0.00,,,0.00,Wunderground v.1.15,2013-02-20 09:54:00,
2013-02-20 05:05:00,23.3,13.6,30.20,South,188,2.0,3.0,66,0.00,,,0.00,Wunderground v.1.15,2013-02-20 10:05:00,
2013-02-20 05:14:00,23.3,13.6,30.20,SE,141,1.0,6.0,66,0.00,,,0.00,Wunderground v.1.15,2013-02-20 10:14:00,
2013-02-20 05:19:00,23.4,13.4,30.20,SSW,200,1.0,3.0,65,0.00,,,0.00,Wunderground v.1.15,2013-02-20 10:19:00,
2013-02-20 05:30:00,23.5,13.5,30.20,SSW,201,2.0,3.0,65,0.00,,,0.00,Wunderground v.1.15,2013-02-20 10:30:00,
2013-02-20 05:39:00,23.6,13.5,30.20,SW,224,2.0,3.0,65,0.00,,,0.00,Wunderground v.1.15,2013-02-20 10:39:00,
2013-02-20 05:45:00,23.6,13.2,30.20,SE,138,3.0,3.0,64,0.00,,,0.00,Wunderground v.1.15,2013-02-20 10:45:00,
2013-02-20 05:54:00,23.6,13.5,30.20,SSE,153,1.0,3.0,65,0.00,,,0.00,Wunderground v.1.15,2013-02-20 10:54:00,
2013-02-20 06:05:00,23.4,13.7,30.21,ESE,104,2.0,3.0,66,0.00,,,0.00,Wunderground v.1.15,2013-02-20 11:05:00,
2013-02-20 06:14:00,23.3,13.6,30.21,SW,215,2.0,3.0,66,0.00,,,0.00,Wunderground v.1.15,2013-02-20 11:14:00,
2013-02-20 06:24:00,23.2,13.9,30.21,SSW,195,1.0,3.0,67,0.00,,,0.00,Wunderground v.1.15,2013-02-20 11:24:00,
2013-02-20 06:34:00,23.2,13.9,30.21,WSW,250,1.0,3.0,67,0.00,,,0.00,Wunderground v.1.15,2013-02-20 11:34:00,
2013-02-20 06:45:00,22.9,13.9,30.22,SSE,147,1.0,3.0,68,0.00,,,0.00,Wunderground v.1.15,2013-02-20 11:45:00,
2013-02-20 06:54:00,22.9,13.6,30.22,SE,136,2.0,3.0,67,0.00,,,0.00,Wunderground v.1.15,2013-02-20 11:54:00,
2013-02-20 07:05:00,23.0,13.3,30.22,SE,138,2.0,3.0,66,0.00,,,0.00,Wunderground v.1.15,2013-02-20 12:05:00,
2013-02-20 07:14:00,22.9,13.9,30.22,SSE,162,2.0,3.0,68,0.00,,,0.00,Wunderground v.1.15,2013-02-20 12:14:00,
2013-02-20 07:19:00,22.7,13.7,30.22,ESE,118,1.0,3.0,68,0.00,,,0.00,Wunderground v.1.15,2013-02-20 12:19:00,
2013-02-20 07:29:00,22.4,14.1,30.22,SSW,208,0.0,3.0,70,0.00,,,0.00,Wunderground v.1.15,2013-02-20 12:29:00,
2013-02-20 07:34:00,22.1,13.8,30.22,SSW,210,0.0,3.0,70,0.00,,,0.00,Wunderground v.1.15,2013-02-20 12:34:00,
2013-02-20 07:44:00,22.2,13.9,30.23,SE,139,1.0,3.0,70,0.00,,,0.00,Wunderground v.1.15,2013-02-20 12:44:00,
2013-02-20 07:49:00,22.3,13.7,30.23,ESE,107,0.0,3.0,69,0.00,,,0.00,Wunderground v.1.15,2013-02-20 12:49:00,
2013-02-20 07:54:00,22.3,13.7,30.23,SSW,200,0.0,3.0,69,0.00,,,0.00,Wunderground v.1.15,2013-02-20 12:54:00,
2013-02-20 08:00:00,22.4,14.1,30.23,SSE,154,0.0,3.0,70,0.00,,,0.00,Wunderground v.1.15,2013-02-20 13:00:00,
2013-02-20 08:05:00,22.6,14.3,30.23,South,187,0.0,3.0,70,0.00,,,0.00,Wunderground v.1.15,2013-02-20 13:05:00,
2013-02-20 08:10:00,22.8,14.5,30.24,SW,231,1.0,3.0,70,0.00,,,0.00,Wunderground v.1.15,2013-02-20 13:10:00,
2013-02-20 08:19:00,22.9,14.6,30.24,South,169,1.0,3.0,70,0.00,,,0.00,Wunderground v.1.15,2013-02-20 13:19:00,
2013-02-20 08:24:00,23.0,14.3,30.24,SE,126,1.0,3.0,69,0.00,,,0.00,Wunderground v.1.15,2013-02-20 13:24:00,
2013-02-20 08:34:00,23.0,14.7,30.25,WNW,283,1.0,3.0,70,0.00,,,0.00,Wunderground v.1.15,2013-02-20 13:34:00,
2013-02-20 08:44:00,22.8,13.8,30.26,SE,128,2.0,4.0,68,0.00,,,0.00,Wunderground v.1.15,2013-02-20 13:44:00,
2013-02-20 08:49:00,22.8,13.8,30.26,ENE,57,1.0,1.0,68,0.00,,,0.00,Wunderground v.1.15,2013-02-20 13:49:00,
2013-02-20 08:54:00,23.0,14.3,30.26,SSE,162,2.0,3.0,69,0.00,,,0.00,Wunderground v.1.15,2013-02-20 13:54:00,
2013-02-20 08:59:00,23.6,13.9,30.27,South,172,3.0,6.0,66,0.00,,,0.00,Wunderground v.1.15,2013-02-20 13:59:00,
2013-02-20 09:09:00,24.2,14.8,30.27,South,181,3.0,4.0,67,0.00,,,0.00,Wunderground v.1.15,2013-02-20 14:09:00,
2013-02-20 09:19:00,23.4,13.7,30.27,ESE,121,3.0,3.0,66,0.00,,,0.00,Wunderground v.1.15,2013-02-20 14:19:00,
2013-02-20 09:29:00,-999.9,-99.9,30.27,North,5,2.0,3.0,255,0.00,,,0.00,Wunderground v.1.15,2013-02-20 14:29:00,
2013-02-20 09:39:00,23.7,14.0,30.27,East,93,2.0,3.0,66,0.00,,,0.00,Wunderground v.1.15,2013-02-20 14:39:00,
2013-02-20 09:44:00,23.8,13.4,30.27,ESE,120,2.0,3.0,64,0.00,,,0.00,Wunderground v.1.15,2013-02-20 14:44:00,
2013-02-20 09:50:00,23.9,13.8,30.27,ESE,105,2.0,3.0,65,0.00,,,0.00,Wunderground v.1.15,2013-02-20 14:50:00,
2013-02-20 09:55:00,23.8,13.7,30.27,SSE,153,2.0,4.0,65,0.00,,,0.00,Wunderground v.1.15,2013-02-20 14:55:00,
2013-02-20 10:00:00,24.0,13.9,30.27,ESE,115,2.0,3.0,65,0.00,,,0.00,Wunderground v.1.15,2013-02-20 15:00:00,
2013-02-20 10:09:00,-999.9,-99.9,30.27,East,89,2.0,3.0,64,0.00,,,0.00,Wunderground v.1.15,2013-02-20 15:09:00,
2013-02-20 10:14:00,24.7,14.6,30.27,SE,142,3.0,3.0,65,0.00,,,0.00,Wunderground v.1.15,2013-02-20 15:14:00,
2013-02-20 10:19:00,-999.9,-99.9,30.27,ESE,118,2.0,3.0,255,0.00,,,0.00,Wunderground v.1.15,2013-02-20 15:19:00,
2013-02-20 10:24:00,-999.9,-99.9,30.27,ESE,108,2.0,4.0,255,0.00,,,0.00,Wunderground v.1.15,2013-02-20 15:24:00,
2013-02-20 10:34:00,25.5,14.3,30.28,ESE,105,2.0,4.0,62,0.00,,,0.00,Wunderground v.1.15,2013-02-20 15:34:00,
2013-02-20 10:40:00,-999.9,-99.9,30.28,East,88,2.0,3.0,255,0.00,,,0.00,Wunderground v.1.15,2013-02-20 15:40:00,
2013-02-20 10:50:00,-999.9,-99.9,30.29,WSW,254,2.0,2.0,255,0.00,,,0.00,Wunderground v.1.15,2013-02-20 15:50:00,
2013-02-20 10:59:00,-999.9,-99.9,30.29,ESE,117,3.0,3.0,255,0.00,,,0.00,Wunderground v.1.15,2013-02-20 15:59:00,
2013-02-20 11:04:00,-999.9,-99.9,30.29,East,89,3.0,3.0,255,0.00,,,0.00,Wunderground v.1.15,2013-02-20 16:04:00,
2013-02-20 11:09:00,-999.9,-99.9,30.29,NE,55,4.0,5.0,255,0.00,,,0.00,Wunderground v.1.15,2013-02-20 16:09:00,
2013-02-20 11:15:00,25.8,14.6,30.29,SSE,160,3.0,5.0,62,0.00,,,0.00,Wunderground v.1.15,2013-02-20 16:15:00,
2013-02-20 11:20:00,25.5,14.6,30.29,SE,145,3.0,4.0,63,0.00,,,0.00,Wunderground v.1.15,2013-02-20 16:20:00,
2013-02-20 11:29:00,25.1,14.3,30.29,ENE,75,4.0,4.0,63,0.00,,,0.00,Wunderground v.1.15,2013-02-20 16:29:00,
2013-02-20 11:39:00,26.0,15.1,30.30,ENE,77,3.0,3.0,63,0.00,,,0.00,Wunderground v.1.15,2013-02-20 16:39:00,
2013-02-20 11:44:00,26.2,14.6,30.30,SE,136,4.0,4.0,61,0.00,,,0.00,Wunderground v.1.15,2013-02-20 16:44:00,
2013-02-20 11:54:00,26.7,15.4,30.30,East,91,4.0,4.0,62,0.00,,,0.00,Wunderground v.1.15,2013-02-20 16:54:00,
2013-02-20 11:59:00,27.0,15.3,30.30,South,177,3.0,8.0,61,0.00,,,0.00,Wunderground v.1.15,2013-02-20 16:59:00,
2013-02-20 12:10:00,28.1,15.6,30.30,NW,314,3.0,3.0,59,0.00,,,0.00,Wunderground v.1.15,2013-02-20 17:10:00,
2013-02-20 12:19:00,28.8,17.4,30.29,ENE,72,2.0,8.0,62,0.00,,,0.00,Wunderground v.1.15,2013-02-20 17:19:00,
2013-02-20 12:24:00,28.4,13.9,30.29,ENE,68,3.0,8.0,54,0.00,,,0.00,Wunderground v.1.15,2013-02-20 17:24:00,
2013-02-20 12:34:00,28.9,15.2,30.28,SE,129,4.0,5.0,56,0.00,,,0.00,Wunderground v.1.15,2013-02-20 17:34:00,
2013-02-20 12:44:00,28.0,14.7,30.28,SSE,150,4.0,6.0,57,0.00,,,0.00,Wunderground v.1.15,2013-02-20 17:44:00,
2013-02-20 12:49:00,28.3,14.2,30.28,NNE,20,4.0,4.0,55,0.00,,,0.00,Wunderground v.1.15,2013-02-20 17:49:00,
2013-02-20 12:54:00,29.0,14.0,30.28,ESE,104,3.0,6.0,53,0.00,,,0.00,Wunderground v.1.15,2013-02-20 17:54:00,
2013-02-20 13:04:00,29.3,15.5,30.28,SSE,165,3.0,3.0,56,0.00,,,0.00,Wunderground v.1.15,2013-02-20 18:04:00,
2013-02-20 13:09:00,29.4,14.4,30.28,SE,139,3.0,3.0,53,0.00,,,0.00,Wunderground v.1.15,2013-02-20 18:09:00,
2013-02-20 13:15:00,29.7,15.1,30.28,ESE,122,4.0,4.0,54,0.00,,,0.00,Wunderground v.1.15,2013-02-20 18:15:00,
2013-02-20 13:24:00,30.4,15.7,30.28,SSW,203,3.0,4.0,54,0.00,,,0.00,Wunderground v.1.15,2013-02-20 18:24:00,
2013-02-20 13:34:00,31.3,16.1,30.27,East,87,1.0,6.0,53,0.00,,,0.00,Wunderground v.1.15,2013-02-20 18:34:00,
2013-02-20 13:39:00,30.9,15.3,30.27,ESE,105,3.0,5.0,52,0.00,,,0.00,Wunderground v.1.15,2013-02-20 18:39:00,
2013-02-20 13:44:00,30.7,15.6,30.26,SW,228,4.0,5.0,53,0.00,,,0.00,Wunderground v.1.15,2013-02-20 18:44:00,
2013-02-20 13:50:00,31.0,16.7,30.26,South,188,4.0,4.0,55,0.00,,,0.00,Wunderground v.1.15,2013-02-20 18:50:00,
2013-02-20 13:59:00,32.1,16.9,30.27,SE,135,4.0,4.0,53,0.00,,,0.00,Wunderground v.1.15,2013-02-20 18:59:00,
2013-02-20 14:09:00,32.1,16.0,30.27,SW,219,2.0,2.0,51,0.00,,,0.00,Wunderground v.1.15,2013-02-20 19:09:00,
2013-02-20 14:19:00,31.5,15.0,30.26,East,97,3.0,3.0,50,0.00,,,0.00,Wunderground v.1.15,2013-02-20 19:19:00,
2013-02-20 14:29:00,31.8,15.3,30.26,East,97,3.0,5.0,50,0.00,,,0.00,Wunderground v.1.15,2013-02-20 19:29:00,
2013-02-20 14:34:00,31.8,15.3,30.26,East,85,3.0,5.0,50,0.00,,,0.00,Wunderground v.1.15,2013-02-20 19:34:00,
2013-02-20 14:44:00,32.5,15.4,30.26,East,94,3.0,4.0,49,0.00,,,0.00,Wunderground v.1.15,2013-02-20 19:44:00,
2013-02-20 14:54:00,32.1,16.0,30.26,East,89,3.0,5.0,51,0.00,,,0.00,Wunderground v.1.15,2013-02-20 19:54:00,
2013-02-20 14:59:00,32.0,14.0,30.26,South,169,4.0,4.0,47,0.00,,,0.00,Wunderground v.1.15,2013-02-20 19:59:00,
2013-02-20 15:09:00,32.2,15.2,30.26,SSE,152,4.0,5.0,49,0.00,,,0.00,Wunderground v.1.15,2013-02-20 20:09:00,
2013-02-20 15:20:00,32.5,16.8,30.26,SSE,148,3.0,3.0,52,0.00,,,0.00,Wunderground v.1.15,2013-02-20 20:20:00,
2013-02-20 15:29:00,32.7,16.1,30.26,NW,312,2.0,2.0,50,0.00,,,0.00,Wunderground v.1.15,2013-02-20 20:29:00,
2013-02-20 15:40:00,31.8,14.8,30.26,East,94,3.0,5.0,49,0.00,,,0.00,Wunderground v.1.15,2013-02-20 20:40:00,
2013-02-20 15:49:00,32.4,15.8,30.27,SSE,151,2.0,2.0,50,0.00,,,0.00,Wunderground v.1.15,2013-02-20 20:49:00,
2013-02-20 15:59:00,32.0,15.4,30.27,NE,43,3.0,3.0,50,0.00,,,0.00,Wunderground v.1.15,2013-02-20 20:59:00,
2013-02-20 16:10:00,31.8,15.3,30.27,East,87,2.0,3.0,50,0.00,,,0.00,Wunderground v.1.15,2013-02-20 21:10:00,
2013-02-20 16:19:00,32.0,16.8,30.27,SE,130,2.0,2.0,53,0.00,,,0.00,Wunderground v.1.15,2013-02-20 21:19:00,
2013-02-20 16:29:00,31.8,15.3,30.27,ENE,67,2.0,2.0,50,0.00,,,0.00,Wunderground v.1.15,2013-02-20 21:29:00,
2013-02-20 16:34:00,31.9,15.8,30.27,SSE,158,2.0,4.0,51,0.00,,,0.00,Wunderground v.1.15,2013-02-20 21:34:00,
2013-02-20 16:44:00,31.3,14.8,30.28,SE,129,2.0,3.0,50,0.00,,,0.00,Wunderground v.1.15,2013-02-20 21:44:00,
2013-02-20 16:54:00,30.6,14.6,30.27,WNW,288,2.0,3.0,51,0.00,,,0.00,Wunderground v.1.15,2013-02-20 21:54:00,
2013-02-20 17:04:00,30.3,15.6,30.28,SE,127,2.0,3.0,54,0.00,,,0.00,Wunderground v.1.15,2013-02-20 22:04:00,
2013-02-20 17:14:00,30.0,14.5,30.27,ESE,113,1.0,3.0,52,0.00,,,0.00,Wunderground v.1.15,2013-02-20 22:14:00,
2013-02-20 17:20:00,29.7,14.6,30.27,ESE,107,2.0,3.0,53,0.00,,,0.00,Wunderground v.1.15,2013-02-20 22:20:00,
2013-02-20 17:29:00,29.4,14.8,30.27,ESE,121,1.0,1.0,54,0.00,,,0.00,Wunderground v.1.15,2013-02-20 22:29:00,
2013-02-20 17:39:00,29.2,14.6,30.27,ESE,115,0.0,3.0,54,0.00,,,0.00,Wunderground v.1.15,2013-02-20 22:39:00,
2013-02-20 17:49:00,28.8,14.6,30.28,SSW,198,0.0,3.0,55,0.00,,,0.00,Wunderground v.1.15,2013-02-20 22:49:00,
2013-02-20 17:59:00,28.4,14.3,30.28,SE,135,1.0,1.0,55,0.00,,,0.00,Wunderground v.1.15,2013-02-20 22:59:00,
2013-02-20 18:09:00,28.1,14.8,30.28,ESE,117,0.0,3.0,57,0.00,,,0.00,Wunderground v.1.15,2013-02-20 23:09:00,
2013-02-20 18:19:00,27.5,15.8,30.28,SW,215,0.0,3.0,61,0.00,,,0.00,Wunderground v.1.15,2013-02-20 23:19:00,
2013-02-20 18:30:00,26.9,15.6,30.29,SW,214,0.0,3.0,62,0.00,,,0.00,Wunderground v.1.15,2013-02-20 23:30:00,
2013-02-20 18:39:00,26.5,15.6,30.30,South,187,0.0,3.0,63,0.00,,,0.00,Wunderground v.1.15,2013-02-20 23:39:00,
2013-02-20 18:49:00,26.1,15.9,30.30,South,187,0.0,3.0,65,0.00,,,0.00,Wunderground v.1.15,2013-02-20 23:49:00,
2013-02-20 18:54:00,25.9,16.1,30.30,South,188,0.0,3.0,66,0.00,,,0.00,Wunderground v.1.15,2013-02-20 23:54:00,
2013-02-20 19:04:00,25.5,15.7,30.30,South,187,0.0,3.0,66,0.00,,,0.00,Wunderground v.1.15,2013-02-21 00:04:00,
2013-02-20 19:14:00,25.3,15.9,30.30,South,187,0.0,3.0,67,0.00,,,0.00,Wunderground v.1.15,2013-02-21 00:14:00,
2013-02-20 19:20:00,25.2,16.5,30.30,South,187,0.0,3.0,69,0.00,,,0.00,Wunderground v.1.15,2013-02-21 00:20:00,
2013-02-20 19:29:00,24.8,16.4,30.31,South,187,0.0,3.0,70,0.00,,,0.00,Wunderground v.1.15,2013-02-21 00:29:00,
2013-02-20 19:39:00,24.5,16.1,30.31,South,187,0.0,3.0,70,0.00,,,0.00,Wunderground v.1.15,2013-02-21 00:39:00,
2013-02-20 19:49:00,24.3,16.6,30.31,South,187,0.0,3.0,72,0.00,,,0.00,Wunderground v.1.15,2013-02-21 00:49:00,
2013-02-20 19:59:00,24.2,16.5,30.31,South,187,0.0,3.0,72,0.00,,,0.00,Wunderground v.1.15,2013-02-21 00:59:00,
2013-02-20 20:10:00,24.1,16.4,30.31,South,187,0.0,3.0,72,0.00,,,0.00,Wunderground v.1.15,2013-02-21 01:10:00,
2013-02-20 20:19:00,24.1,17.0,30.30,South,187,0.0,3.0,74,0.00,,,0.00,Wunderground v.1.15,2013-02-21 01:19:00,
2013-02-20 20:24:00,24.0,16.6,30.30,South,187,0.0,3.0,73,0.00,,,0.00,Wunderground v.1.15,2013-02-21 01:24:00,
2013-02-20 20:34:00,24.0,16.3,30.30,South,187,0.0,3.0,72,0.00,,,0.00,Wunderground v.1.15,2013-02-21 01:34:00,
2013-02-20 20:45:00,23.9,16.5,30.30,South,187,0.0,3.0,73,0.00,,,0.00,Wunderground v.1.15,2013-02-21 01:45:00,
2013-02-20 20:54:00,23.8,16.4,30.30,South,191,0.0,3.0,73,0.00,,,0.00,Wunderground v.1.15,2013-02-21 01:54:00,
2013-02-20 21:04:00,23.8,16.4,30.30,South,190,0.0,3.0,73,0.00,,,0.00,Wunderground v.1.15,2013-02-21 02:04:00,
2013-02-20 21:10:00,23.6,16.5,30.30,SSW,212,0.0,3.0,74,0.00,,,0.00,Wunderground v.1.15,2013-02-21 02:10:00,
2013-02-20 21:19:00,23.5,16.1,30.30,SSW,212,0.0,3.0,73,0.00,,,0.00,Wunderground v.1.15,2013-02-21 02:19:00,
2013-02-20 21:29:00,23.1,16.0,30.30,SSW,212,0.0,3.0,74,0.00,,,0.00,Wunderground v.1.15,2013-02-21 02:29:00,
2013-02-20 21:35:00,22.9,15.5,30.30,SSW,212,0.0,3.0,73,0.00,,,0.00,Wunderground v.1.15,2013-02-21 02:35:00,
2013-02-20 21:44:00,22.5,15.8,30.30,SSW,212,0.0,3.0,75,0.00,,,0.00,Wunderground v.1.15,2013-02-21 02:44:00,
2013-02-20 21:54:00,22.3,15.3,30.31,SSW,212,0.0,3.0,74,0.00,,,0.00,Wunderground v.1.15,2013-02-21 02:54:00,
2013-02-20 21:59:00,22.3,15.6,30.31,SSW,212,0.0,3.0,75,0.00,,,0.00,Wunderground v.1.15,2013-02-21 02:59:00,
2013-02-20 22:05:00,22.3,15.6,30.31,SSW,212,0.0,3.0,75,0.00,,,0.00,Wunderground v.1.15,2013-02-21 03:05:00,
2013-02-20 22:14:00,22.0,15.9,30.31,SSW,212,0.0,3.0,77,0.00,,,0.00,Wunderground v.1.15,2013-02-21 03:14:00,
2013-02-20 22:24:00,21.7,15.3,30.31,SSW,212,0.0,3.0,76,0.00,,,0.00,Wunderground v.1.15,2013-02-21 03:24:00,
2013-02-20 22:30:00,21.3,15.2,30.31,SSW,212,0.0,3.0,77,0.00,,,0.00,Wunderground v.1.15,2013-02-21 03:30:00,
2013-02-20 22:39:00,20.9,15.1,30.30,SSW,212,0.0,3.0,78,0.00,,,0.00,Wunderground v.1.15,2013-02-21 03:39:00,
2013-02-20 22:49:00,20.8,15.3,30.30,SSW,212,0.0,3.0,79,0.00,,,0.00,Wunderground v.1.15,2013-02-21 03:49:00,
2013-02-20 22:59:00,20.6,15.4,30.30,SSW,212,0.0,3.0,80,0.00,,,0.00,Wunderground v.1.15,2013-02-21 03:59:00,
2013-02-20 23:09:00,20.8,15.9,30.30,SSW,212,0.0,3.0,81,0.00,,,0.00,Wunderground v.1.15,2013-02-21 04:09:00,
2013-02-20 23:15:00,20.8,15.9,30.29,SSW,212,0.0,3.0,81,0.00,,,0.00,Wunderground v.1.15,2013-02-21 04:15:00,
2013-02-20 23:24:00,21.8,16.3,30.30,NW,324,1.0,3.0,79,0.00,,,0.00,Wunderground v.1.15,2013-02-21 04:24:00,
2013-02-20 23:34:00,21.5,16.0,30.31,NW,324,0.0,3.0,79,0.00,,,0.00,Wunderground v.1.15,2013-02-21 04:34:00,
2013-02-20 23:44:00,21.4,16.2,30.31,WNW,283,0.0,3.0,80,0.00,,,0.00,Wunderground v.1.15,2013-02-21 04:44:00,
2013-02-20 23:54:00,21.0,16.1,30.31,WNW,284,0.0,3.0,81,0.00,,,0.00,Wunderground v.1.15,2013-02-21 04:54:00,